| time (UTC) | temp F | wind direction | speed MPH | gust MPH | rain 1hr in | rain 24hr in | rain mn in | humidity % | barometer mb |
| 20260505021552 | 51 | 319 | 5.0 | 17.0 | 0.00 | 0.56 | 0.01 | 74 | 1004.5 |
| 20260505020054 | 51 | 248 | 5.0 | 15.0 | 0.00 | 0.56 | 0.01 | 75 | 1004.5 |
| 20260505014551 | 51 | 244 | 3.0 | 12.0 | 0.00 | 0.74 | 0.01 | 75 | 1004.4 |
| 20260505013045 | 51 | 302 | 7.0 | 14.0 | 0.00 | 0.74 | 0.01 | 74 | 1004.2 |
| 20260505011545 | 51 | 213 | 7.0 | 15.0 | 0.00 | 0.74 | 0.01 | 73 | 1004.1 |
| 20260505010053 | 51 | 241 | 6.0 | 14.0 | 0.00 | 0.74 | 0.01 | 73 | 1004.2 |
| 20260505004542 | 51 | 213 | 7.0 | 16.0 | 0.00 | 0.89 | 0.01 | 73 | 1004.0 |
| 20260505003042 | 50 | 225 | 6.0 | 14.0 | 0.00 | 0.89 | 0.01 | 71 | 1003.9 |
| 20260505001540 | 50 | 238 | 4.0 | 9.0 | 0.00 | 0.89 | 0.01 | 70 | 1003.8 |
| 20260505000044 | 51 | 215 | 4.0 | 12.0 | 0.00 | 0.89 | 0.01 | 70 | 1003.4 |
| 20260504234535 | 51 | 268 | 5.0 | 15.0 | 0.00 | 0.94 | 0.01 | 70 | 1003.1 |
| 20260504233038 | 51 | 239 | 10.0 | 20.0 | 0.00 | 0.94 | 0.01 | 70 | 1002.8 |
| 20260504231531 | 51 | 296 | 8.0 | 20.0 | 0.00 | 0.94 | 0.01 | 69 | 1002.6 |
| 20260504230030 | 53 | 248 | 9.0 | 17.0 | 0.00 | 0.94 | 0.01 | 53 | 1002.7 |
| 20260504224528 | 53 | 209 | 8.0 | 19.0 | 0.00 | 0.99 | 0.01 | 52 | 1002.2 |
| 20260504223026 | 53 | 213 | 4.0 | 11.0 | 0.00 | 0.99 | 0.01 | 56 | 1002.1 |
| 20260504221524 | 53 | 225 | 3.0 | 8.0 | 0.00 | 0.99 | 0.01 | 55 | 1002.0 |
| 20260504220024 | 54 | 238 | 5.0 | 8.0 | 0.00 | 0.99 | 0.01 | 56 | 1001.9 |
| 20260504214523 | 55 | 262 | 4.0 | 14.0 | 0.00 | 1.00 | 0.01 | 56 | 1001.8 |
| 20260504213021 | 55 | 312 | 4.0 | 14.0 | 0.00 | 1.00 | 0.01 | 55 | 1001.8 |
| 20260504211521 | 55 | 248 | 7.0 | 14.0 | 0.00 | 1.00 | 0.01 | 55 | 1001.6 |
| 20260504210019 | 55 | 234 | 8.0 | 16.0 | 0.00 | 1.00 | 0.01 | 57 | 1001.5 |
| 20260504204517 | 56 | 309 | 3.0 | 14.0 | 0.00 | 1.01 | 0.01 | 60 | 1001.3 |
| 20260504203022 | 55 | 248 | 7.0 | 15.0 | 0.00 | 1.01 | 0.01 | 61 | 1001.1 |
| 20260504201510 | 54 | 254 | 7.0 | 23.0 | 0.00 | 1.01 | 0.01 | 62 | 1000.9 |
| 20260504200010 | 54 | 291 | 11.0 | 21.0 | 0.00 | 1.01 | 0.01 | 61 | 1000.7 |
| 20260504194508 | 55 | 266 | 5.0 | 23.0 | 0.00 | 1.01 | 0.01 | 65 | 1000.5 |
| 20260504193013 | 54 | 241 | 9.0 | 21.0 | 0.00 | 1.01 | 0.01 | 63 | 1000.1 |
| 20260504191503 | 53 | 277 | 12.0 | 29.0 | 0.00 | 1.01 | 0.01 | 62 | 1000.0 |
| 20260504190129 | 53 | 309 | 7.0 | 22.0 | 0.00 | 1.01 | 0.01 | 64 | 1000.0 |
| 20260504184557 | 53 | 263 | 12.0 | 24.0 | 0.00 | 1.01 | 0.01 | 64 | 999.8 |
| 20260504183055 | 53 | 295 | 11.0 | 30.0 | 0.00 | 1.01 | 0.01 | 67 | 999.7 |
| 20260504181554 | 52 | 213 | 15.0 | 26.0 | 0.00 | 1.01 | 0.01 | 65 | 999.4 |
| 20260504180050 | 52 | 284 | 12.0 | 30.0 | 0.00 | 1.01 | 0.01 | 69 | 999.3 |
| 20260504174547 | 52 | 309 | 13.0 | 27.0 | 0.00 | 1.01 | 0.01 | 71 | 999.1 |
| 20260504173044 | 51 | 245 | 14.0 | 29.0 | 0.00 | 1.01 | 0.01 | 74 | 999.2 |
| 20260504171541 | 50 | 235 | 15.0 | 29.0 | 0.00 | 1.01 | 0.01 | 78 | 999.0 |
| 20260504081523 | 38 | 250 | 17.0 | 37.0 | 0.09 | 0.88 | 0.28 | 97 | 980.3 |
| 20260504060120 | 40 | 221 | 5.0 | 9.0 | 0.06 | 0.72 | 0.12 | 99 | 976.6 |
| 20260504050106 | 39 | 281 | 4.0 | 8.0 | 0.02 | 0.66 | 0.06 | 100 | 974.9 |
| 20260504044550 | 39 | 274 | 4.0 | 8.0 | 0.04 | 0.66 | 0.06 | 100 | 974.5 |
| 20260504043056 | 39 | 294 | 3.0 | 7.0 | 0.04 | 0.65 | 0.05 | 99 | 974.3 |
| 20260504041548 | 39 | 304 | 2.0 | 5.0 | 0.04 | 0.64 | 0.04 | 99 | 973.7 |
| 20260504040047 | 39 | 32 | 1.0 | 3.0 | 0.03 | 0.63 | 0.03 | 99 | 973.6 |
| 20260504034544 | 39 | 34 | 0.0 | 6.0 | 0.03 | 0.62 | 0.02 | 99 | 973.8 |
| 20260504033042 | 39 | 88 | 10.0 | 17.0 | 0.02 | 0.61 | 0.01 | 99 | 974.2 |
| 20260504031538 | 39 | 25 | 8.0 | 16.0 | 0.02 | 0.60 | 0.00 | 99 | 974.7 |
| 20260504030034 | 40 | 95 | 10.0 | 19.0 | 0.02 | 0.60 | 0.00 | 98 | 975.0 |
| 20260504024531 | 40 | 85 | 14.0 | 28.0 | 0.01 | 0.59 | 0.59 | 98 | 975.9 |
| 20260504023028 | 40 | 82 | 12.0 | 25.0 | 0.01 | 0.59 | 0.59 | 98 | 976.9 |